When you browse on this site, cookies collect data to enhance your experience and personalize the content and advertising you see.
Visit our Privacy Policy to learn more. By continuing to use the site, you agree to this use of cookies and data.
  • în România
  • Lista ţărilor
  • Pe 7 zile
  • Temperatura apei
  • Meteo pe hartă
  • Widget-uri
  • user-avatar
    Intrare

    Meteo pe oră la Blaj

    Astăzi, 6 Iunie, Sâmbătă

    Timp Temperatura Precipitaţii Vânt Presiune Umiditate
    00:00 +19°C° 0 mm 1 m/s 726 mmHg 69%
    01:00 +19°C° 0 mm 1 m/s 726 mmHg 71%
    02:00 +18°C° 0 mm 1 m/s 727 mmHg 72%
    03:00 +18°C° 0 mm 1 m/s 727 mmHg 73%
    04:00 +16°C° 0 mm 0 m/s 727 mmHg 73%
    05:00 +16°C° 0 mm 0 m/s 727 mmHg 74%
    06:00 +17°C° 0 mm 0 m/s 727 mmHg 71%
    07:00 +18°C° 0 mm 0 m/s 727 mmHg 69%
    08:00 +21°C° 0 mm 1 m/s 728 mmHg 67%
    09:00 +23°C° 0 mm 1 m/s 728 mmHg 63%
    10:00 +24°C° 0 mm 2 m/s 728 mmHg 59%
    11:00 +26°C° 0 mm 2 m/s 728 mmHg 55%
    12:00 +26°C° 0.1 mm 2 m/s 728 mmHg 58%
    13:00 +25°C° 0.1 mm 2 m/s 728 mmHg 61%
    14:00 +25°C° 0.1 mm 1 m/s 727 mmHg 63%
    15:00 +26°C° 0.1 mm 2 m/s 727 mmHg 63%
    16:00 +26°C° 0.1 mm 2 m/s 727 mmHg 62%
    17:00 +27°C° 0.1 mm 2 m/s 727 mmHg 62%
    18:00 +25°C° 0.3 mm 2 m/s 726 mmHg 69%
    19:00 +23°C° 0.3 mm 2 m/s 726 mmHg 76%
    20:00 +20°C° 0.3 mm 2 m/s 726 mmHg 83%
    21:00 +19°C° 0 mm 2 m/s 726 mmHg 85%
    22:00 +19°C° 0 mm 1 m/s 726 mmHg 86%
    23:00 +19°C° 0 mm 1 m/s 727 mmHg 88%

    Mâine, 7 Iunie, Duminică

    Timp Temperatura Precipitaţii Vânt Presiune Umiditate
    00:00 +18°C° 0 mm 1 m/s 727 mmHg 87%
    01:00 +16°C° 0 mm 1 m/s 727 mmHg 87%
    02:00 +16°C° 0 mm 1 m/s 727 mmHg 87%
    03:00 +16°C° 0 mm 1 m/s 726 mmHg 87%
    04:00 +15°C° 0 mm 1 m/s 726 mmHg 86%
    05:00 +15°C° 0 mm 1 m/s 726 mmHg 85%
    06:00 +18°C° 0 mm 1 m/s 727 mmHg 80%
    07:00 +19°C° 0 mm 1 m/s 727 mmHg 74%
    08:00 +21°C° 0 mm 1 m/s 727 mmHg 69%
    09:00 +23°C° 0 mm 2 m/s 727 mmHg 63%
    10:00 +24°C° 0 mm 2 m/s 728 mmHg 57%
    11:00 +26°C° 0 mm 3 m/s 728 mmHg 51%
    12:00 +27°C° 0 mm 2 m/s 728 mmHg 49%
    13:00 +27°C° 0 mm 2 m/s 728 mmHg 46%
    14:00 +28°C° 0 mm 2 m/s 728 mmHg 44%
    15:00 +26°C° 0.2 mm 3 m/s 727 mmHg 53%
    16:00 +24°C° 0.2 mm 3 m/s 727 mmHg 62%
    17:00 +20°C° 0.2 mm 4 m/s 727 mmHg 72%
    18:00 +20°C° 0.1 mm 3 m/s 727 mmHg 74%
    19:00 +19°C° 0.1 mm 2 m/s 727 mmHg 75%
    20:00 +19°C° 0.1 mm 1 m/s 727 mmHg 77%
    21:00 +18°C° 0 mm 1 m/s 727 mmHg 80%
    22:00 +16°C° 0 mm 1 m/s 727 mmHg 82%
    23:00 +15°C° 0 mm 1 m/s 728 mmHg 85%

    Poimâine, 8 Iunie, Luni

    Timp Temperatura Precipitaţii Vânt Presiune Umiditate
    00:00 +15°C° 0 mm 1 m/s 727 mmHg 85%
    01:00 +15°C° 0 mm 1 m/s 727 mmHg 86%
    02:00 +13°C° 0 mm 0 m/s 727 mmHg 87%
    03:00 +13°C° 0 mm 0 m/s 727 mmHg 87%
    04:00 +13°C° 0 mm 0 m/s 727 mmHg 88%
    05:00 +12°C° 0 mm 0 m/s 726 mmHg 88%
    06:00 +14°C° 0 mm 0 m/s 727 mmHg 84%
    07:00 +18°C° 0 mm 1 m/s 727 mmHg 79%
    08:00 +20°C° 0 mm 1 m/s 727 mmHg 75%
    09:00 +22°C° 0 mm 1 m/s 727 mmHg 69%
    10:00 +23°C° 0 mm 1 m/s 727 mmHg 63%
    11:00 +25°C° 0 mm 2 m/s 727 mmHg 57%
    12:00 +25°C° 0 mm 2 m/s 727 mmHg 55%
    13:00 +26°C° 0 mm 1 m/s 727 mmHg 53%
    14:00 +27°C° 0 mm 1 m/s 727 mmHg 51%
    15:00 +27°C° 0.1 mm 1 m/s 727 mmHg 53%
    16:00 +26°C° 0.1 mm 1 m/s 727 mmHg 55%
    17:00 +26°C° 0.1 mm 2 m/s 726 mmHg 56%
    18:00 +24°C° 0.2 mm 2 m/s 726 mmHg 64%
    19:00 +23°C° 0.2 mm 2 m/s 726 mmHg 72%
    20:00 +20°C° 0.2 mm 2 m/s 726 mmHg 79%
    21:00 +20°C° 0 mm 1 m/s 726 mmHg 81%
    22:00 +19°C° 0 mm 1 m/s 727 mmHg 84%
    23:00 +18°C° 0 mm 1 m/s 727 mmHg 86%

    9 Iunie, Marţi

    Timp Temperatura Precipitaţii Vânt Presiune Umiditate
    00:00 +16°C° 0.1 mm 1 m/s 727 mmHg 87%
    01:00 +16°C° 0.1 mm 1 m/s 727 mmHg 88%
    02:00 +15°C° 0.1 mm 1 m/s 726 mmHg 89%
    03:00 +15°C° 0 mm 1 m/s 727 mmHg 89%
    04:00 +15°C° 0 mm 1 m/s 727 mmHg 89%
    05:00 +14°C° 0 mm 0 m/s 727 mmHg 90%
    06:00 +15°C° 0 mm 0 m/s 727 mmHg 85%
    07:00 +17°C° 0 mm 0 m/s 727 mmHg 81%
    08:00 +19°C° 0 mm 0 m/s 728 mmHg 76%
    09:00 +23°C° 0.1 mm 1 m/s 728 mmHg 72%
    10:00 +24°C° 0.1 mm 1 m/s 728 mmHg 68%
    11:00 +26°C° 0.1 mm 1 m/s 728 mmHg 63%
    12:00 +26°C° 0.3 mm 1 m/s 728 mmHg 60%
    13:00 +27°C° 0.3 mm 1 m/s 728 mmHg 57%
    14:00 +28°C° 0.3 mm 1 m/s 728 mmHg 53%
    15:00 +27°C° 0.6 mm 2 m/s 728 mmHg 58%
    16:00 +26°C° 0.6 mm 2 m/s 727 mmHg 64%
    17:00 +25°C° 0.6 mm 3 m/s 727 mmHg 69%
    18:00 +24°C° 0.5 mm 2 m/s 727 mmHg 73%
    19:00 +22°C° 0.5 mm 1 m/s 727 mmHg 77%
    20:00 +20°C° 0.5 mm 1 m/s 727 mmHg 82%
    21:00 +20°C° 0.3 mm 1 m/s 727 mmHg 83%
    22:00 +19°C° 0.3 mm 1 m/s 727 mmHg 84%
    23:00 +18°C° 0.3 mm 1 m/s 728 mmHg 84%

    10 Iunie, Miercuri

    Timp Temperatura Precipitaţii Vânt Presiune Umiditate
    00:00 +16°C° 0 mm 0 m/s 728 mmHg 85%
    01:00 +15°C° 0 mm 0 m/s 727 mmHg 86%
    02:00 +15°C° 0 mm 0 m/s 727 mmHg 87%
    03:00 +15°C° 0 mm 0 m/s 727 mmHg 87%
    04:00 +15°C° 0 mm 0 m/s 727 mmHg 88%
    05:00 +14°C° 0 mm 0 m/s 727 mmHg 88%
    06:00 +16°C° 0 mm 0 m/s 728 mmHg 84%
    07:00 +18°C° 0 mm 0 m/s 728 mmHg 80%
    08:00 +20°C° 0 mm 0 m/s 728 mmHg 77%
    09:00 +21°C° 0.2 mm 0 m/s 728 mmHg 72%
    10:00 +23°C° 0.2 mm 0 m/s 728 mmHg 67%
    11:00 +27°C° 0.2 mm 1 m/s 728 mmHg 62%
    12:00 +27°C° 0.2 mm 1 m/s 728 mmHg 59%
    13:00 +28°C° 0.2 mm 1 m/s 728 mmHg 56%
    14:00 +28°C° 0.2 mm 1 m/s 727 mmHg 53%
    15:00 +28°C° 0.1 mm 1 m/s 727 mmHg 53%
    16:00 +28°C° 0.1 mm 1 m/s 727 mmHg 54%
    17:00 +28°C° 0.1 mm 1 m/s 727 mmHg 54%
    18:00 +26°C° 0.1 mm 1 m/s 727 mmHg 61%
    19:00 +24°C° 0.1 mm 1 m/s 727 mmHg 67%
    20:00 +23°C° 0.1 mm 1 m/s 727 mmHg 74%
    21:00 +21°C° 0.2 mm 1 m/s 727 mmHg 77%
    22:00 +20°C° 0.2 mm 1 m/s 727 mmHg 80%
    23:00 +19°C° 0.2 mm 1 m/s 727 mmHg 83%

    11 Iunie, Joi

    Timp Temperatura Precipitaţii Vânt Presiune Umiditate
    00:00 +19°C° 0.1 mm 1 m/s 727 mmHg 84%
    01:00 +18°C° 0.1 mm 1 m/s 727 mmHg 85%
    02:00 +18°C° 0.1 mm 1 m/s 727 mmHg 86%
    03:00 +16°C° 0 mm 1 m/s 726 mmHg 86%
    04:00 +15°C° 0 mm 0 m/s 726 mmHg 87%
    05:00 +15°C° 0 mm 0 m/s 726 mmHg 87%
    06:00 +16°C° 0 mm 0 m/s 726 mmHg 83%
    07:00 +18°C° 0 mm 0 m/s 726 mmHg 80%
    08:00 +20°C° 0 mm 0 m/s 726 mmHg 76%
    09:00 +23°C° 0.1 mm 1 m/s 726 mmHg 72%
    10:00 +25°C° 0.1 mm 1 m/s 726 mmHg 68%
    11:00 +26°C° 0.1 mm 1 m/s 726 mmHg 63%
    12:00 +26°C° 0.8 mm 1 m/s 726 mmHg 63%
    13:00 +26°C° 0.8 mm 2 m/s 726 mmHg 63%
    14:00 +26°C° 0.8 mm 2 m/s 726 mmHg 63%
    15:00 +26°C° 0.3 mm 3 m/s 725 mmHg 64%
    16:00 +25°C° 0.3 mm 3 m/s 725 mmHg 65%
    17:00 +25°C° 0.3 mm 3 m/s 725 mmHg 67%
    18:00 +22°C° 0.3 mm 3 m/s 725 mmHg 72%
    19:00 +21°C° 0.3 mm 2 m/s 725 mmHg 78%
    20:00 +19°C° 0.3 mm 2 m/s 725 mmHg 83%
    21:00 +19°C° 0 mm 1 m/s 725 mmHg 85%
    22:00 +18°C° 0 mm 1 m/s 725 mmHg 87%
    23:00 +15°C° 0 mm 0 m/s 725 mmHg 89%
    Arată mai mult